METEOR 2-5 DEB, 38273

Orbit data source: Space-Track

METEOR 2-5 DEB, 38273 is space debris in LEO originally from a launch on Wed, 31 Oct 1979 UTC launched from the Plesetsk Missile And Space Complex (PKMTR). Debris objects in space refer to the collection of defunct objects orbiting the Earth. Examples of debris include non-operational satellites, rocket bodies, and fragments generated from explosions, collisions, or faulty payload assembly.

Loading next visibility...
Identifier
38273, 1979-095BT
Orbit
LEO
Country
Flag of CISCIS
Related business
Manufacturer
Unknown
Mission
Spacecraft
Bus & Motor
Unknown
Mass
Unknown
Launch date (UTC)
1979-10-31 (47 years ago)
Launch vehicle
Unknown
Launch site
Plesetsk Missile And Space Complex (PKMTR)
Object type
Payload
Rocket body
Debris
Shape & HBR
Unknown shape, 0.1 m
Radar Cross Section
Small (<0.1 m²)

Expand to show TLE details & history
Last TLE update: 21 hours ago

TLE from 21 hours ago
0 METEOR 2-5 DEB
1 38273U 79095BT  26123.39067508  .00006737  00000-0  20017-2 0  9990
2 38273  81.2184 165.9237 0002237 270.7974  89.2959 14.43153208669499
Epoch: 2026-05-03T09:22Z
TLE epoch observation values (Epoch: 2026-05-03T09:22:34.326Z)
Latitude
-0.00002°
Longitude
163.98577°
Altitude
751.024 km
Speed
7.479 km/s
True Right ascension
11h 03m 41s
True Declination
0° 00' 00"
Sunlit
Object was in full shadow at epoch
Visualization orbit readout
Latitude
Unknown
Longitude
Unknown
Altitude
Unknown
Speed
Unknown
Apparent Right ascension
Unknown
Apparent Declination
Unknown
Sunlit
N/A
Visualization observer readout
Local Sidereal Time
14:15:49
Azimuth
Unknown
Elevation
Unknown
Doppler factor
Unknown
Orbital elements
Apogee altitude
746.824 km
Perigee altitude
743.637 km
Semi-major axis
7,123.367 km
Eccentricity
0.00022
Inclination
81.2184°
RAAN
165.9237°
Arg. of periapsis
270.7974°
True anomaly
89.32153°
Mean anomaly
89.2959°
Eccentric anomaly
89.30872°
Mean motion
3.61007 °/min
Orbital period
99.72 mins
BSTAR
0.0020017
Loading maneuver chart data...
Computing Atmospheric mass density...

Documentation

Showing up to 5 results
|